Location: Arroyo de San Miguel
(40.9167°N, 4.6667°W)
Time: 01:28:39
(UTC+00:00)

Cosmos 2082 Rocket - Pass Details

Date: 19 May 2025
Orbit: 831 x 853 km, 71.0° (Epoch: 24 June)

Event Time Altitude Azimuth Distance (km) Brightness Sun altitude
Exits shadow 23:23:26 24° 255° (WSW) 1,652 3.7 -27.9°
Maximum altitude 23:25:58 36° 302° (WNW) 1,297 3.4 -28.0°
Drops below altitude 10° 23:31:07 10° 8° (N) 2,452 5.5 -28.2°
Sets 23:33:47 0° 17° (NNE) 3,393 6.3 -28.3°
